Wind_Speed
35 35 31 28 29 26 25 23 21 20 16 14 17 23 26 27 29 29 31 33 33 31 30 32 33 33 33 35 38 39 38 37 37 36 35 35 35 35 36 38 39 40 41 43
37 35 28 30 30 28 25 25 23 20 14 14 15 19 25 29 31 32 33 32 28 24 25 29 31 33 34 37 40 39 38 37 36 35 35 36 37 38 39 40 42 43 44 46
35 29 29 31 30 29 26 25 24 22 20 18 18 22 28 31 33 35 33 26 22 21 24 29 31 32 33 36 39 38 37 37 37 37 38 39 40 40 42 44 45 47 49 51
31 28 30 32 32 31 28 22 22 25 29 26 24 26 31 34 36 35 32 26 24 23 26 31 33 32 31 35 36 36 36 38 39 40 41 42 42 44 46 48 50 53 55 57
25 23 28 30 29 29 27 22 22 26 31 35 34 32 36 39 38 35 32 28 27 28 30 33 35 34 34 35 37 38 39 40 42 44 45 46 46 48 50 52 54 56 58 60
24 24 28 28 27 27 25 24 27 30 31 37 39 40 43 44 41 38 35 32 33 34 36 38 37 36 36 38 39 42 43 44 44 46 48 48 50 51 53 55 57 58 60 61
25 26 27 28 29 29 29 30 32 34 36 37 34 40 43 43 42 41 37 35 37 38 40 40 38 37 37 39 42 46 47 46 47 48 50 51 52 54 56 57 59 60 61 62
25 25 25 26 26 24 27 29 31 33 32 32 35 40 39 39 39 37 37 38 39 39 40 41 41 39 39 40 45 49 48 47 50 52 52 54 55 57 58 59 61 61 62 62
23 26 23 27 25 26 27 25 26 32 32 32 33 34 33 32 34 35 38 39 39 38 37 38 40 40 41 43 48 50 48 49 52 55 55 55 57 58 60 61 61 62 62 56
24 23 23 26 29 30 30 26 26 31 33 34 35 36 35 33 33 33 34 34 33 33 34 36 39 41 43 47 50 51 50 51 54 56 56 57 59 61 61 61 61 61 52 43
35 32 24 27 31 28 28 28 29 31 34 34 32 33 34 37 40 41 41 41 38 35 36 37 39 42 46 49 51 51 52 53 55 56 58 60 62 62 61 60 58 50 40 37
37 37 33 29 31 27 28 28 29 32 34 35 35 32 32 36 41 44 44 43 42 39 38 37 38 44 48 48 48 50 52 54 56 59 61 62 63 61 60 56 48 39 36 36
40 40 40 33 31 32 31 29 29 31 33 37 39 37 35 38 41 43 45 45 44 43 40 38 41 44 43 42 44 48 52 56 59 62 62 62 61 60 56 48 40 36 36 37
47 45 43 41 36 36 39 38 35 34 37 40 42 37 34 36 39 43 47 48 48 44 43 43 40 36 36 40 45 50 55 60 63 62 61 59 59 56 47 40 37 36 37 39
53 52 50 47 44 43 42 43 43 43 43 42 38 36 38 42 43 45 46 46 45 44 41 34 31 33 37 42 48 54 60 62 61 59 57 57 54 45 38 36 36 37 39 42
56 59 58 56 52 50 48 47 47 48 49 48 46 43 44 45 45 45 45 43 41 38 33 30 31 35 40 46 52 58 60 59 57 56 55 52 44 38 36 37 38 40 42 46
50 56 60 63 62 60 57 53 53 54 54 55 54 51 48 47 45 46 47 46 44 38 31 30 34 39 45 50 54 56 55 55 53 53 50 43 38 37 37 39 41 43 46 48
46 50 54 59 61 64 62 61 61 60 60 59 58 57 54 53 50 51 49 45 43 37 34 40 42 44 47 50 52 52 51 50 50 49 43 38 36 37 39 41 44 47 49 51
46 47 50 53 56 58 57 57 56 56 59 61 61 61 61 58 57 55 54 49 43 42 43 43 44 46 47 48 48 48 47 46 46 41 36 35 37 39 41 43 46 48 50 51
43 45 47 49 52 54 52 50 48 48 50 52 54 56 58 59 59 55 49 44 42 43 43 43 44 45 45 45 45 43 43 43 39 34 33 35 37 40 42 45 47 49 50 51
33 37 40 44 47 47 46 45 42 42 41 37 36 38 40 42 40 39 39 40 40 41 41 40 40 40 41 41 39 40 41 37 32 31 33 35 38 41 43 45 47 48 50 52
25 29 34 38 40 41 41 40 38 36 35 34 34 32 29 29 30 32 34 36 37 36 35 34 34 35 35 35 37 38 34 30 29 30 33 36 39 41 43 44 46 48 50 50
23 25 28 31 34 35 37 38 37 35 34 33 32 29 26 26 26 26 27 29 29 29 30 31 32 32 32 34 34 30 26 25 28 31 34 37 39 41 43 43 45 47 47 46
24 25 26 26 27 28 29 31 32 32 29 27 22 19 19 18 19 21 23 24 25 27 29 31 31 30 31 30 26 22 22 25 28 31 35 37 39 41 42 42 43 44 43 42
21 21 21 18 16 17 18 21 23 24 21 15 9 8 11 14 17 19 20 22 25 27 28 28 26 27 26 22 18 19 21 25 28 32 34 37 39 41 41 40 42 42 41 40
15 16 16 13 11 12 11 12 13 11 10 7 8 11 14 16 18 18 20 22 24 24 23 23 23 22 18 14 15 18 21 25 29 32 34 37 39 41 40 40 41 41 39 37
Wind_Direction
243 244 245 248 250 247 246 247 245 234 223 240 256 254 257 268 278 286 294 299 298 296 298 301 304 307 313 319 321 323 323 322 320 317 315 313 312 312 311 309 307 306 304 304
243 245 245 245 245 245 246 247 246 232 219 249 267 266 260 265 274 281 289 293 290 290 295 298 298 301 309 316 320 323 323 321 320 318 315 314 312 312 310 309 307 306 304 303
244 242 239 241 242 243 244 247 243 217 208 236 256 257 256 260 268 276 285 290 289 290 293 295 297 301 309 317 321 322 320 319 318 318 316 315 313 311 309 307 307 306 305 305
241 238 238 239 239 239 234 237 238 218 210 228 243 252 254 259 265 273 281 287 287 285 288 291 293 297 304 313 319 320 319 319 319 318 317 315 312 309 307 307 307 307 306 305
240 237 238 239 239 237 235 235 237 234 225 223 231 246 254 256 260 268 277 285 285 284 287 287 288 292 298 307 313 316 317 317 316 316 315 313 310 308 307 307 306 306 305 305
239 234 236 235 230 226 228 232 239 242 239 234 227 236 249 256 263 268 273 279 282 283 286 288 287 289 296 303 306 309 311 312 313 314 313 312 310 308 307 307 306 306 306 305
239 236 239 238 231 222 224 231 240 244 242 240 233 236 247 258 263 267 270 273 276 279 284 288 288 290 295 300 303 306 308 312 315 316 314 311 309 308 308 308 307 306 305 304
243 239 239 238 236 230 231 239 246 251 252 249 242 243 247 254 261 263 264 267 271 276 281 285 287 289 293 299 302 305 307 311 315 316 314 311 310 309 308 307 305 304 303 302
249 242 234 234 220 219 229 240 252 253 254 254 249 247 241 243 251 258 264 267 271 274 278 282 284 287 291 295 299 304 308 311 313 313 312 310 308 307 307 306 305 304 304 301
253 251 226 227 224 223 231 234 247 247 249 251 252 249 243 246 255 263 269 272 276 274 275 278 283 286 287 290 296 304 308 308 309 310 309 308 308 308 308 308 307 307 304 300
239 241 223 216 222 231 235 235 241 246 246 249 253 255 254 253 256 261 267 272 276 277 276 278 281 280 281 286 295 302 305 307 309 310 310 310 309 310 310 309 309 308 304 301
241 245 239 220 215 228 240 240 240 245 247 249 255 259 261 260 259 260 264 269 273 274 277 279 276 273 278 287 297 303 307 309 309 310 309 310 310 311 310 309 308 304 302 303
241 244 245 236 222 222 231 238 241 241 241 242 248 255 258 259 260 262 265 268 272 278 280 275 270 272 282 295 304 310 312 310 309 309 309 310 310 310 309 306 302 302 303 305
244 246 248 244 235 228 231 236 241 244 247 249 248 249 255 260 261 261 264 268 273 276 274 271 269 280 296 305 310 313 312 310 309 309 310 311 311 310 307 303 302 304 305 307
244 247 249 250 246 239 236 237 240 244 249 254 256 254 258 264 264 265 268 270 272 272 271 275 288 299 305 308 311 312 311 309 309 311 312 312 312 310 306 305 305 306 307 309
240 244 246 248 249 248 246 244 245 246 250 254 256 256 260 263 267 270 272 274 278 275 275 284 297 306 307 308 309 310 310 310 311 313 313 312 310 309 308 308 308 308 310 312
241 244 246 246 247 249 250 251 251 252 254 256 258 258 258 265 273 278 277 277 275 272 282 300 312 310 308 309 309 309 310 312 313 313 312 310 308 309 310 310 311 312 314 315
240 242 246 247 247 248 249 249 250 252 254 257 259 260 261 266 274 279 279 278 273 275 293 311 314 309 308 307 308 309 311 313 313 312 310 308 308 311 313 314 314 316 317 317
246 245 246 248 249 250 250 251 252 251 252 253 255 257 259 263 269 274 277 278 278 288 303 311 310 306 305 305 307 310 312 312 311 310 308 308 311 314 315 316 318 319 320 320
250 251 251 252 253 255 255 254 254 255 255 254 256 257 259 262 266 270 272 274 282 294 303 305 303 302 303 305 308 311 312 311 309 307 308 311 313 315 317 320 322 323 324 323
248 249 251 252 254 256 257 257 254 252 253 254 256 260 263 263 261 261 266 275 286 294 298 299 299 301 304 307 310 310 309 307 306 306 309 313 315 319 322 324 326 326 326 327
249 251 253 255 257 257 255 253 251 249 248 249 256 259 253 247 248 256 267 279 287 290 292 296 300 304 307 308 308 307 306 304 305 309 313 316 320 324 327 328 329 330 330 331
262 264 264 262 263 262 255 248 247 246 246 247 247 243 242 245 250 260 271 278 281 286 290 295 301 306 307 306 306 305 302 303 309 314 317 321 326 329 332 332 332 332 333 333
270 274 274 271 268 260 249 241 241 244 247 245 238 243 254 255 257 262 267 271 279 288 294 298 301 301 303 305 305 301 303 309 315 319 322 327 331 334 335 334 334 334 335 335
271 273 274 271 262 248 235 233 234 237 245 255 263 269 269 261 261 264 267 276 286 292 295 297 296 299 304 306 301 302 309 317 321 324 328 332 336 337 336 335 336 337 337 339
265 272 273 260 227 215 214 212 216 229 244 252 280 287 280 269 266 268 273 281 286 290 292 294 298 303 306 302 303 311 320 323 326 330 334 337 339 339 338 338 339 341 342 344
Height
5849 5852 5856 5859 5859 5861 5861 5862 5864 5867 5866 5864 5863 5863 5862 5863 5865 5866 5866 5866 5864 5863 5861 5859 5856 5854 5851 5848 5844 5840 5835 5832 5829 5826 5823 5820 5816 5813 5809 5805 5801 5797 5793 5789
5842 5846 5851 5850 5850 5852 5854 5855 5858 5861 5861 5859 5858 5857 5857 5859 5861 5862 5863 5863 5861 5859 5857 5855 5853 5850 5848 5844 5838 5833 5829 5825 5822 5820 5816 5813 5808 5803 5799 5795 5791 5787 5783 5779
5834 5841 5841 5841 5842 5844 5847 5849 5852 5854 5856 5855 5855 5854 5853 5854 5856 5858 5859 5859 5857 5855 5853 5850 5847 5845 5842 5838 5833 5828 5824 5820 5817 5813 5809 5805 5800 5795 5791 5787 5782 5777 5772 5766
5826 5831 5832 5833 5835 5837 5839 5843 5845 5847 5849 5850 5851 5850 5848 5848 5850 5852 5854 5855 5854 5851 5849 5846 5842 5840 5837 5834 5829 5824 5819 5815 5810 5806 5802 5797 5793 5788 5783 5777 5772 5765 5759 5753
5821 5824 5825 5826 5829 5831 5833 5836 5838 5840 5841 5843 5844 5844 5840 5840 5842 5845 5847 5848 5847 5846 5844 5841 5837 5835 5832 5828 5823 5818 5813 5807 5803 5799 5795 5790 5785 5779 5773 5766 5760 5754 5747 5740
5815 5817 5817 5819 5822 5824 5827 5829 5831 5832 5833 5833 5837 5837 5833 5832 5836 5839 5841 5841 5840 5839 5837 5834 5832 5829 5825 5821 5816 5812 5806 5801 5797 5793 5787 5781 5775 5768 5762 5756 5749 5743 5735 5727
5808 5810 5811 5813 5814 5817 5820 5822 5823 5824 5824 5825 5832 5830 5828 5827 5829 5831 5833 5834 5833 5831 5830 5827 5825 5822 5818 5814 5809 5803 5798 5793 5789 5784 5778 5771 5765 5758 5751 5744 5737 5730 5723 5715
5800 5803 5806 5807 5809 5812 5814 5815 5816 5817 5818 5820 5823 5822 5823 5822 5820 5822 5824 5824 5824 5823 5822 5820 5817 5814 5810 5805 5800 5795 5790 5785 5780 5774 5768 5761 5755 5748 5741 5734 5726 5719 5711 5703
5793 5796 5800 5801 5802 5804 5805 5807 5810 5811 5810 5811 5812 5812 5813 5813 5814 5815 5815 5816 5816 5815 5815 5812 5809 5806 5802 5798 5792 5787 5782 5778 5772 5766 5760 5753 5747 5739 5731 5723 5714 5705 5697 5688
5785 5786 5792 5796 5796 5795 5798 5801 5803 5802 5803 5803 5804 5804 5806 5808 5808 5808 5807 5807 5807 5807 5807 5805 5802 5799 5795 5789 5783 5780 5776 5771 5765 5758 5751 5744 5736 5728 5719 5710 5700 5691 5682 5675
5774 5777 5782 5786 5788 5790 5793 5794 5795 5795 5796 5797 5797 5799 5801 5802 5801 5799 5798 5798 5798 5799 5799 5797 5794 5790 5785 5779 5776 5772 5767 5762 5755 5748 5740 5732 5724 5715 5706 5697 5687 5678 5672 5667
5768 5770 5773 5777 5781 5785 5786 5787 5788 5788 5789 5790 5791 5794 5794 5794 5792 5791 5790 5790 5790 5790 5790 5789 5785 5779 5774 5771 5768 5763 5758 5752 5745 5737 5729 5721 5712 5703 5694 5685 5676 5669 5664 5659
5761 5763 5765 5771 5777 5777 5777 5778 5779 5780 5781 5782 5782 5786 5786 5785 5785 5784 5783 5783 5782 5782 5782 5777 5772 5767 5764 5762 5758 5754 5748 5741 5734 5726 5718 5710 5701 5693 5683 5674 5667 5661 5656 5650
5755 5757 5759 5763 5766 5768 5769 5770 5771 5772 5771 5772 5772 5774 5775 5775 5776 5777 5776 5775 5774 5773 5769 5765 5761 5758 5755 5752 5747 5743 5737 5731 5723 5715 5707 5699 5691 5682 5673 5666 5660 5654 5648 5642
5746 5748 5750 5753 5756 5758 5760 5762 5763 5763 5762 5763 5764 5764 5766 5766 5766 5767 5767 5766 5764 5761 5757 5753 5750 5748 5745 5742 5738 5733 5727 5720 5713 5705 5696 5688 5680 5672 5665 5658 5652 5647 5640 5633
5734 5735 5738 5742 5745 5747 5750 5754 5755 5755 5755 5755 5756 5758 5759 5758 5757 5758 5757 5756 5755 5750 5745 5743 5741 5739 5737 5734 5729 5723 5716 5709 5701 5694 5686 5678 5670 5664 5657 5651 5645 5639 5631 5623
5722 5722 5724 5728 5731 5734 5738 5744 5744 5745 5746 5747 5748 5751 5751 5750 5749 5749 5748 5748 5745 5740 5736 5735 5733 5731 5728 5723 5718 5711 5705 5698 5690 5683 5676 5669 5663 5657 5650 5644 5637 5629 5621 5613
5708 5709 5709 5712 5718 5719 5726 5727 5730 5732 5734 5736 5738 5740 5742 5742 5742 5740 5740 5738 5734 5730 5728 5727 5724 5721 5717 5713 5708 5701 5695 5688 5681 5675 5668 5662 5656 5649 5642 5635 5628 5619 5610 5601
5694 5696 5697 5700 5701 5704 5711 5713 5716 5719 5720 5723 5727 5729 5731 5732 5732 5731 5731 5729 5726 5722 5720 5718 5716 5712 5708 5704 5699 5692 5685 5679 5673 5667 5661 5656 5649 5642 5635 5627 5618 5609 5600 5590
5682 5683 5686 5687 5688 5691 5698 5700 5703 5706 5707 5712 5715 5718 5720 5722 5723 5723 5721 5718 5716 5714 5712 5711 5708 5705 5701 5696 5690 5683 5677 5672 5667 5661 5656 5650 5643 5636 5627 5618 5609 5599 5589 5579
5671 5672 5674 5675 5676 5680 5685 5687 5691 5696 5699 5702 5705 5706 5708 5710 5711 5711 5710 5710 5708 5707 5706 5704 5701 5697 5692 5687 5681 5677 5672 5667 5662 5656 5650 5644 5637 5629 5620 5610 5600 5590 5580 5569
5663 5664 5664 5665 5666 5671 5674 5676 5681 5686 5690 5692 5695 5696 5698 5699 5699 5702 5702 5702 5702 5701 5699 5697 5694 5689 5684 5680 5676 5672 5667 5662 5657 5651 5645 5638 5630 5621 5612 5602 5592 5582 5571 5560
5655 5655 5655 5656 5658 5659 5662 5666 5672 5678 5683 5686 5688 5690 5692 5692 5693 5694 5696 5697 5696 5695 5693 5690 5687 5682 5678 5675 5671 5666 5662 5657 5652 5646 5639 5632 5624 5614 5605 5596 5586 5575 5565 5554
5647 5646 5645 5645 5646 5647 5650 5656 5663 5670 5676 5679 5681 5683 5686 5687 5688 5689 5691 5691 5690 5688 5686 5683 5680 5676 5673 5669 5665 5662 5658 5653 5647 5641 5634 5626 5617 5609 5600 5590 5580 5571 5560 5550
5640 5639 5637 5637 5638 5639 5643 5651 5658 5664 5670 5673 5675 5677 5679 5681 5682 5684 5684 5684 5682 5681 5679 5677 5674 5671 5667 5664 5661 5658 5654 5649 5643 5637 5629 5620 5612 5604 5595 5585 5576 5566 5556 5545
5635 5633 5631 5632 5634 5637 5643 5649 5655 5661 5665 5667 5669 5671 5673 5675 5677 5678 5678 5678 5677 5676 5675 5672 5669 5666 5663 5661 5659 5655 5651 5646 5639 5632 5624 5616 5608 5599 5590 5581 5571 5561 5551 5541